Content
SEND FEEDBACK

Daily
Averages
Monthly
Summary
United States of America

CHELSEA, MASSACHUSETTS


Home > North America > United States > Massachusetts
Elevation: 30 feet     Latitude: 42 24N     Longitude: 071 06W

WEATHER
 
SELECT A DAY
Number of Records: 203,188;   Date Range: 1/1/95 - 9/21/14
 
SHARE

PRINT THIS DATA

[ ← Previous Day ]
WEATHER ALMANAC - SEPTEMBER 1, 2013
[ Next Day → ]
[ °C ]   °F
Weather ElementAverageHighLow
Temperature73 °F77 °F (3:18 pm)69.8 °F (10:05 am)
Dewpoint69.3 °F73.4 °F (3:18 pm)66 °F (5:54 am)
Humidity87.9 %94 % (9:42 am)79 % (5:54 am)
Barometer29.86 in29.88 in (9:42 am)29.79 in (2:54 am)
Wind Speed8.2 mph20.7 mph (10:54 am)
Wind Gust27.6 mph (10:54 am)
Weather ElementAverage
Visibility8.1 mi
Wind DirectionSSW (188.1 °)

Weather ElementTotal
Precipitation0.93 in
Cooling Degree Days8.4 (Base 65)
Growing Degree Days23.4 (Base 50)
Averaged from 43 records on September 1, 2013
WEATHER CONDITIONS BREAKOUT
WIND DIRECTION BREAKOUT
WEATHER BY HOUR - SEPTEMBER 1, 2013
[ °C ]   °F
Local TimeTemperatureDewpointHumidityBarometerVisibilityWind DirectionWind SpeedGust SpeedPrecipitationEventsConditions
1:47 AM73.4 °F69.8 °F88 %29.81 in8.0 miSSW (210°)10.4 mphOvercast
1:54 AM73.0 °F69.1 °F87 %29.81 in8.0 miSW (220°)12.7 mphOvercast
2:29 AM73.4 °F69.8 °F88 %29.80 in8.0 miSW (220°)15.0 mphMostly Cloudy
2:54 AM73.4 °F69.8 °F88 %29.79 in8.0 miSW (220°)15.0 mphMostly Cloudy
3:54 AM73.4 °F69.8 °F88 %29.81 in8.0 miWSW (250°)11.5 mphMostly Cloudy
4:54 AM73.0 °F69.1 °F87 %29.80 in8.0 miSW (230°)8.1 mphMostly Cloudy
5:54 AM73.0 °F66.0 °F79 %29.83 in8.0 miWSW (240°)8.1 mphMostly Cloudy
6:54 AM73.0 °F66.9 °F81 %29.85 in10.0 miSW (230°)9.2 mph0.00 inOvercast
7:54 AM72.0 °F66.9 °F84 %29.86 in10.0 miSW (230°)11.5 mph0.00 inOvercast
8:54 AM73.0 °F69.1 °F87 %29.86 in10.0 miSSW (210°)10.4 mphOvercast
9:42 AM71.6 °F69.8 °F94 %29.88 in1.8 miSW (220°)13.8 mph0.08 inRain-ThunderstormHeavy Thunderstorms and Rain
9:47 AM71.6 °F68.0 °F88 %29.88 in2.0 miSSW (210°)13.8 mph0.12 inRain-ThunderstormHeavy Thunderstorms and Rain
9:54 AM71.1 °F66.9 °F87 %29.87 in3.0 miSSW (210°)12.7 mphRain-ThunderstormHeavy Thunderstorms and Rain
10:05 AM69.8 °F66.2 °F88 %29.87 in2.0 miSSW (210°)11.5 mph0.10 inRain-ThunderstormHeavy Thunderstorms and Rain
10:15 AM69.8 °F68.0 °F94 %29.87 in9.0 miSouth (190°)5.8 mph0.12 inRain-ThunderstormLight Thunderstorms and Rain
10:35 AM71.6 °F68.0 °F88 %29.88 in10.0 miWSW (250°)11.5 mph18.4 mph0.13 inOvercast
10:54 AM71.1 °F66.9 °F87 %29.87 in9.0 miWSW (240°)20.7 mph27.6 mph0.13 inRainLight Rain
11:07 AM71.6 °F66.2 °F83 %29.87 in2.5 miWSW (250°)6.9 mph0.07 inRainLight Rain
11:11 AM71.6 °F66.2 °F83 %29.87 in5.0 miWSW (240°)6.9 mph0.08 inRainLight Rain
11:54 AM73.0 °F68.0 °F84 %29.86 in10.0 miSSW (210°)9.2 mph0.09 inRainLight Rain
12:54 PM73.0 °F69.1 °F87 %29.87 in10.0 miSW (230°)4.6 mph0.01 inOvercast
1:11 PM73.4 °F69.8 °F88 %29.86 in10.0 miSW (220°)6.9 mph0.00 inRainLight Rain
1:54 PM73.9 °F71.1 °F91 %29.86 in9.0 miSouth (190°)6.9 mph0.00 inOvercast
2:22 PM75.2 °F71.6 °F89 %29.86 in10.0 miSouth (170°)3.5 mphOvercast
2:31 PM75.2 °F71.6 °F89 %29.86 in9.0 miCalmOvercast
2:45 PM75.2 °F71.6 °F89 %29.86 in10.0 miSouth (180°)3.5 mphOvercast
2:54 PM75.9 °F72.0 °F87 %29.85 in10.0 miSW (220°)4.6 mphOvercast
3:18 PM77.0 °F73.4 °F89 %29.85 in8.0 miCalmOvercast
3:54 PM75.9 °F72.0 °F87 %29.85 in9.0 miESE (120°)5.8 mphOvercast
4:05 PM75.2 °F71.6 °F89 %29.84 in10.0 miENE (70°)8.1 mphMostly Cloudy
4:54 PM73.9 °F69.1 °F85 %29.85 in10.0 miEast (100°)5.8 mphOvercast
5:35 PM73.4 °F69.8 °F88 %29.85 in9.0 miEast (100°)4.6 mphMostly Cloudy
5:54 PM73.0 °F69.1 °F87 %29.85 in9.0 miSE (130°)5.8 mphMostly Cloudy
6:54 PM72.0 °F68.0 °F87 %29.85 in8.0 miSouth (170°)6.9 mphOvercast
7:54 PM73.0 °F70.0 °F90 %29.86 in10.0 miSouth (190°)6.9 mphMostly Cloudy
8:54 PM73.0 °F70.0 °F90 %29.87 in10.0 miSouth (170°)4.6 mphScattered Clouds
9:54 PM71.6 °F69.8 °F94 %29.88 in9.0 miSouth (180°)6.9 mphMostly Cloudy
10:02 PM71.6 °F69.8 °F94 %29.87 in8.0 miSouth (190°)5.8 mphScattered Clouds
10:54 PM72.0 °F70.0 °F93 %29.88 in9.0 miSouth (190°)6.9 mphMostly Cloudy
11:13 PM73.4 °F69.8 °F88 %29.88 in8.0 miSouth (190°)9.2 mphOvercast
11:26 PM73.4 °F69.8 °F88 %29.88 in8.0 miSSW (200°)9.2 mphOvercast
11:44 PM73.4 °F69.8 °F88 %29.88 in8.0 miSouth (190°)5.8 mphOvercast
11:54 PM73.0 °F70.0 °F90 %29.88 in9.0 miSSW (200°)5.8 mphOvercast
Hourly data recorded from KBOS, located miles away from Chelsea, Massachusetts







STORIES FROM OUR PARTNERS